Regional Weather Roundup
Issued by NWS Little Rock, AR

Home | Current Version | Previous Version | Text Only | Print | Product List | Glossary On
Versions: 1 2 3 4 5 6 7 8 9 10 11 12 13 14 15 16 17 18 19 20 21 22 23 24 25 26 27 28 29 30 31 32 33 34 35 36 37 38 39 40 41 42 43 44 45 46 47 48 49 50
000
ASUS44 KLZK 011705
RWRLZK

WEATHER ROUNDUP FOR ARKANSAS
NATIONAL WEATHER SERVICE LITTLE ROCK AR
1200 PM CDT SUN MAY 01 2016

NOTE: "FAIR" INDICATES FEW OR NO CLOUDS BELOW 12,000 FEET WITH NO
SIGNIFICANT WEATHER AND/OR OBSTRUCTIONS TO VISIBILITY.

ARZ001-003-010-029-011800-
NORTHWEST ARKANSAS

CITY           SKY/WX    TMP DP  RH WIND       PRES   REMARKS
FAYETTEVILLE   SUNNY     64  47  53 W9        30.04R
FORT SMITH     SUNNY     68  46  45 W10G16    30.02R
HARRISON       SUNNY     66  45  46 W9        30.00F
BENTONVILLE    SUNNY     63  43  48 NW8       30.04F
ROGERS         SUNNY     62  46  55 W12G18    30.04R
SILOAM SPGS    SUNNY     63  45  51 NW10G17   30.05S
HIGHFILL       SUNNY     63  48  58 W12       30.03S
SPRINGDALE     SUNNY     61  45  55 W12       30.05S
$$

ARZ004-005-016-011800-
NORTH CENTRAL ARKANSAS

CITY           SKY/WX    TMP DP  RH WIND       PRES   REMARKS
BATESVILLE     SUNNY     72  57  60 W9        29.98S
FLIPPIN        SUNNY    N/A N/A N/A W3        29.97S
MTN HOME       SUNNY     66  48  52 VRB6      29.99S
$$

ARZ040-041-011800-
WEST CENTRAL ARKANSAS

CITY           SKY/WX    TMP DP  RH WIND       PRES   REMARKS
MENA           SUNNY     72  52  49 N6        30.01S
MOUNT IDA      SUNNY     72  52  49 CALM      29.97F
$$

ARZ009-017-025-026-028-011800-
NORTHEAST ARKANSAS

CITY           SKY/WX    TMP DP  RH WIND       PRES   REMARKS
CORNING          N/A     73  64  73 W8        29.96R
JONESBORO      MOSUNNY   74  62  66 NW8       29.95R
NEWPORT        SUNNY     74  60  61 NW9       29.97F
WALNUT RIDGE   MOSUNNY   72  57  60 NW7       29.96S
BLYTHEVILLE    CLOUDY    75  68  78 W12       29.94R
$$

ARZ022-023-033-042-044-011800-
CENTRAL ARKANSAS

CITY           SKY/WX    TMP DP  RH WIND       PRES   REMARKS
LITTLE ROCK    PTSUNNY   78  61  55 N12       29.97S
N LITTLE ROCK    N/A     73  62  68 N6        29.96S
JACKSONVILLE   PTSUNNY   74  61  64 W7        29.97S
SEARCY         CLOUDY    73  61  65 NW6       29.98S
HOT SPRINGS    MOSUNNY   74  54  49 NW7       29.98F
RUSSELLVILLE   SUNNY     70  53  54 NW6       29.99F
$$

ARZ036-011800-
EAST ARKANSAS

CITY           SKY/WX    TMP DP  RH WIND       PRES   REMARKS
WEST MEMPHIS   MOSUNNY   78  72  81 S7        29.92F
$$

ARZ050-053-066-070-073-011800-
SOUTHWEST ARKANSAS

CITY           SKY/WX    TMP DP  RH WIND       PRES   REMARKS
ARKADELPHIA    FAIR      75  67  76 NE6       29.97S
CAMDEN         CLOUDY    81  66  61 NW8       29.95R
TEXARKANA      MOSUNNY   73  59  61 NE9       29.97R
EL DORADO      PTSUNNY   78  69  73 SE3       29.94R
DE QUEEN       SUNNY     74  53  48 N8        29.97R
$$

ARZ056-057-069-011800-
SOUTHEAST ARKANSAS

CITY           SKY/WX    TMP DP  RH WIND       PRES   REMARKS
PINE BLUFF     PTSUNNY   75  66  73 N9        29.96R
STUTTGART      PTSUNNY   73  66  78 N8        29.96R
MONTICELLO     CLOUDY    74  70  87 E3        29.95R

$$





USA.gov is the U.S. government's official web portal to all federal, state and local government web resources and services.